Photometre #720[NE_1.6] FZJ-JOYCE AOT

File : 20220926_720.hum

26/09/2022,06:23:15,TEMP=11.3,BA=5.48,STAT.A=10.5,ExtBa=12.92
26/09/2022,06:27:34,TEMP=12.3,BA=5.48,STAT.A=10.0,ExtBa=12.76
26/09/2022,06:32:13,TEMP=12.5,BA=5.24,STAT.A=10.0,ExtBa=12.72
26/09/2022,06:37:59,TEMP=12.3,BA=5.24,STAT.A=10.0,ExtBa=12.75
26/09/2022,06:44:59,TEMP=11.9,BA=5.36,STAT.A=10.5,ExtBa=12.80
26/09/2022,06:47:40,TEMP=12.3,BA=5.36,STAT.h
26/09/2022,06:53:15,TEMP=12.3,BA=5.44,STAT.h
26/09/2022,06:53:21,TEMP=12.3,BA=5.44,STAT.h
26/09/2022,07:04:14,TEMP=12.3,BA=5.44,STAT.h
26/09/2022,07:09:31,TEMP=12.3,BA=5.44,STAT.h
26/09/2022,07:09:32,TEMP=12.3,BA=5.44,STAT.h
26/09/2022,07:15:28,TEMP=12.3,BA=5.48,STAT.h
26/09/2022,07:15:29,TEMP=12.3,BA=5.48,STAT.h
26/09/2022,07:22:12,TEMP=12.3,BA=5.44,STAT.h
26/09/2022,07:22:13,TEMP=12.3,BA=5.44,STAT.h
26/09/2022,07:29:55,TEMP=12.3,BA=5.44,STAT.h
26/09/2022,07:30:01,TEMP=12.3,BA=5.44,STAT.h
26/09/2022,07:38:51,TEMP=12.3,BA=5.32,STAT.h
26/09/2022,07:38:52,TEMP=12.3,BA=5.32,STAT.h
26/09/2022,07:49:22,TEMP=12.3,BA=5.48,STAT.h
26/09/2022,07:49:23,TEMP=12.3,BA=5.48,STAT.h
26/09/2022,08:02:18,TEMP=11.4,BA=5.56,STAT.A=10.5,ExtBa=12.89
26/09/2022,08:17:21,TEMP=12.4,BA=5.52,STAT.h
26/09/2022,08:17:22,TEMP=12.4,BA=5.52,STAT.h
26/09/2022,08:26:23,TEMP=12.2,BA=5.64,STAT.F,ExtBa=12.84
26/09/2022,08:28:38,TEMP=12.5,BA=5.64,STAT.h
26/09/2022,08:41:01,TEMP=12.5,BA=5.60,STAT.h
26/09/2022,08:41:02,TEMP=12.5,BA=5.60,STAT.h
26/09/2022,08:56:01,TEMP=12.5,BA=5.64,STAT.h
26/09/2022,08:56:02,TEMP=12.5,BA=5.64,STAT.h
26/09/2022,09:11:01,TEMP=12.5,BA=5.60,STAT.h
26/09/2022,09:11:02,TEMP=12.5,BA=5.60,STAT.h
26/09/2022,09:26:01,TEMP=12.5,BA=5.64,STAT.h
26/09/2022,09:26:02,TEMP=12.5,BA=5.64,STAT.h
26/09/2022,09:41:01,TEMP=12.5,BA=5.64,STAT.h
26/09/2022,09:41:02,TEMP=12.5,BA=5.64,STAT.h
26/09/2022,09:56:22,TEMP=12.3,BA=5.64,STAT.D=10.5,ExtBa=12.90
26/09/2022,10:11:20,TEMP=12.9,BA=5.64,STAT.D=10.5,ExtBa=12.85
26/09/2022,10:12:00,TEMP=12.9,BA=5.64,STAT.h
26/09/2022,10:12:11,TEMP=12.9,BA=5.64,STAT.h
26/09/2022,10:26:01,TEMP=12.9,BA=5.64,STAT.h
26/09/2022,10:26:02,TEMP=12.9,BA=5.64,STAT.h
26/09/2022,10:41:19,TEMP=13.6,BA=5.64,STAT.D=11.0,ExtBa=12.94
26/09/2022,10:56:21,TEMP=14.1,BA=5.64,STAT.D=11.0,ExtBa=12.94
26/09/2022,11:11:21,TEMP=14.5,BA=5.64,STAT.D=11.0,ExtBa=12.90
26/09/2022,11:26:22,TEMP=14.8,BA=5.64,STAT.F,ExtBa=12.87
26/09/2022,11:41:21,TEMP=15.3,BA=5.64,STAT.D=11.0,ExtBa=12.89
26/09/2022,11:56:22,TEMP=15.3,BA=5.64,STAT.D=11.0,ExtBa=12.85
26/09/2022,11:56:30,TEMP=15.3,BA=5.64,STAT.h
26/09/2022,12:11:01,TEMP=15.3,BA=5.64,STAT.h
26/09/2022,12:11:02,TEMP=15.3,BA=5.64,STAT.h
26/09/2022,12:26:01,TEMP=15.3,BA=5.56,STAT.h
26/09/2022,12:26:02,TEMP=15.3,BA=5.56,STAT.h
26/09/2022,12:41:01,TEMP=15.3,BA=5.64,STAT.h
26/09/2022,12:41:02,TEMP=15.3,BA=5.64,STAT.h
26/09/2022,12:56:21,TEMP=13.3,BA=5.64,STAT.D=11.0,ExtBa=12.90
26/09/2022,12:57:53,TEMP=13.6,BA=5.64,STAT.h
26/09/2022,12:57:54,TEMP=13.6,BA=5.64,STAT.h
26/09/2022,13:11:01,TEMP=13.6,BA=5.64,STAT.h
26/09/2022,13:11:02,TEMP=13.6,BA=5.64,STAT.h
26/09/2022,13:26:01,TEMP=13.6,BA=5.64,STAT.h
26/09/2022,13:26:02,TEMP=13.6,BA=5.64,STAT.h
26/09/2022,13:41:21,TEMP=13.8,BA=5.64,STAT.D=11.0,ExtBa=12.90
26/09/2022,13:42:53,TEMP=14.1,BA=5.64,STAT.h
26/09/2022,13:42:54,TEMP=14.1,BA=5.64,STAT.h
26/09/2022,13:56:01,TEMP=14.1,BA=5.60,STAT.h
26/09/2022,13:56:02,TEMP=14.1,BA=5.60,STAT.h
26/09/2022,14:11:01,TEMP=14.1,BA=5.60,STAT.h
26/09/2022,14:11:02,TEMP=14.1,BA=5.60,STAT.h
26/09/2022,14:26:23,TEMP=13.0,BA=5.64,STAT.F,ExtBa=12.89
26/09/2022,14:34:41,TEMP=13.9,BA=5.36,STAT.h
26/09/2022,14:34:42,TEMP=13.9,BA=5.36,STAT.h
26/09/2022,14:50:28,TEMP=13.3,BA=5.64,STAT.A=11.0,ExtBa=12.87
26/09/2022,15:03:02,TEMP=13.6,BA=5.56,STAT.A=11.0,ExtBa=12.84
26/09/2022,15:13:33,TEMP=13.8,BA=5.52,STAT.C=11.0,ExtBa=12.83
26/09/2022,15:22:29,TEMP=13.9,BA=5.48,STAT.A=10.5,ExtBa=12.82
26/09/2022,15:25:15,TEMP=14.2,BA=5.48,STAT.h
26/09/2022,15:30:12,TEMP=13.9,BA=5.32,STAT.A=11.0,ExtBa=12.82
26/09/2022,15:36:56,TEMP=14.1,BA=5.32,STAT.A=10.5,ExtBa=12.80
26/09/2022,15:42:53,TEMP=14.3,BA=5.32,STAT.A=10.5,ExtBa=12.79
26/09/2022,15:48:09,TEMP=14.4,BA=5.32,STAT.B=10.5,ExtBa=12.78
26/09/2022,15:59:08,TEMP=13.8,BA=5.32,STAT.A=11.0,ExtBa=12.83
26/09/2022,16:07:25,TEMP=14.4,BA=5.32,STAT.h
26/09/2022,16:07:31,TEMP=14.4,BA=5.32,STAT.h
26/09/2022,16:14:24,TEMP=14.4,BA=5.44,STAT.h
26/09/2022,16:14:25,TEMP=14.4,BA=5.44,STAT.h
26/09/2022,16:20:10,TEMP=14.4,BA=5.44,STAT.h
26/09/2022,16:20:16,TEMP=14.4,BA=5.44,STAT.h
26/09/2022,16:25:00,TEMP=14.4,BA=5.44,STAT.h
26/09/2022,16:25:06,TEMP=14.4,BA=5.44,STAT.h
26/09/2022,16:29:08,TEMP=14.4,BA=5.44,STAT.h
26/09/2022,16:29:09,TEMP=14.4,BA=5.44,STAT.h